www.pogodaiklimat.ru

Погода и климат >> Архив погоды >> Гана >> Йенди


ПОГОДА в Йенди

  • Прогноз погоды в Йенди
  • Монитор погоды в Йенди

АРХИВ ПОГОДЫ в Йенди

Время (UTC), дата Ветер
(напр.,м/с)
 
Видим.   Явления Облачность Т
(С)
Тd
(С)
f
(%)
Тe
(С)
Тes
(С)
Комфортность P
(гПа)
Po
(гПа)
Тmin
(С)
Tmax
(С)
R
(мм)
R24
(мм)
S
(см)
21 16.07 ЮЗ 1 10 км {гроза, дождь} 9/0
[Ac trans Cs]
+25.5 +24.5 94 +36 +36 очень
душно
1013.9 991.3
00 17.07 ЮВ 1 12 км {гроза, дождь} 9/4 360 м
[Sc Ac trans]
+25.0 +24.3 96 +35 +35 очень
душно
1014.4 991.8 4
03 17.07 штиль 0 10 км 8/0
[Ac trans Ci sp]
+24.5 +23.8 96 +33 +33 очень
душно
1014.1 991.4
06 17.07 штиль 0 10 км слаб. дождь 9/5 360 м
[Sc Ac trans]
+24.2 +23.5 96 +33 +33 очень
душно
1015.2 992.5 +23.2 4
09 17.07 З 1 14 км {дождь} 8/5 360 м
[Cu Sc Ac trans Ci sp]
+27.0 +24.4 86 +38 +43 очень
душно
1016.3 993.8
12 17.07 ЮЗ 1 10 км в посл. час гроза {дождь} 8/8 480 м
[Cb cap Ac trans Ci sp]
+29.8 +25.0 75 +43 +48 опасность
перегрева
1015.3 993.0 0.0
15 17.07 ЮЗ 1 12 км {ливн. осадки} 8/6 480 м
[Cb cap Ac trans Ci sp]
+31.0 +24.5 68 +43 +48 опасность
перегрева
1012.0 989.8
18 17.07 З 1 12 км {ливн. осадки, дождь} 8/8 360 м
[Cb cap Ac trans Ci sp]
+30.0 +25.0 75 +43 +43 опасность
перегрева
1011.1 988.9 +31.3 2
21 17.07 штиль 0 10 км {дождь} 8/3 360 м
[Sc Ac trans Ci sp]
+27.0 +25.7 93 +40 +40 очень
душно
1012.9 990.4
06 18.07 ЮЗ 1 10 км 8/3 360 м
[Cb cap Ac trans Cs]
+24.7 +24.0 96 +34 +34 очень
душно
1013.1 990.5 +24.2 4
09 18.07 ЮЗ 1 14 км 8/3 360 м
[Cu Sc Ac trans Cs]
+27.5 +24.8 85 +39 +45 очень
душно
1014.7 992.2
12 18.07 З 2 14 км 8/5 480 м
[Cu med, cong Cs]
+30.5 +25.1 73 +44 +54 опасность
перегрева
1013.4 991.2
15 18.07 ЮЗ 2 14 км 8/8 360 м
[Cu Sc Ci sp]
+31.2 +24.6 68 +44 +46 опасность
перегрева
1010.1 988.0
18 18.07 СВ 3 8000 м гроза, ливневой дождь 9/5 330 м
[Cb cap Ac As]
+21.5 +21.5 100 +28 +28 очень
душно
1016.5 993.5 +31.5 18
21 18.07 З 1 6000 м гроза, ливневой дождь 9/3 330 м
[Cb cap Ac As]
+21.3 +21.2 99 +27 +27 душно 1013.5 990.6
00 19.07 СВ 1 10 км {гроза, дождь} 9/9 300 м
[Sc]
+21.9 +21.6 98 +28 +28 душно 1013.9 991.0 13
06 19.07 штиль 0 10 км 9/5 330 м
[Sc Ac As]
+22.4 +22.0 98 +30 +30 очень
душно
1014.3 991.5 +20.9 32
09 19.07 ЮЗ 2 14 км 9/9 360 м
[Sc]
+25.2 +22.2 83 +33 +34 очень
душно
1015.2 992.5
12 19.07 ЮВ 2 14 км 9/9 360 м
[Sc]
+28.0 +23.3 76 +38 +40 очень
душно
1015.3 992.9
15 19.07 Ю 1 14 км 9/6 480 м
[Sc Ac trans]
+29.0 +23.5 72 +39 +42 очень
душно
1012.1 989.8
21 19.07 штиль 0 12 км 8/0
[Ac trans Cs]
+26.5 +24.5 89 +37 +37 очень
душно
1013.9 991.4
00 20.07 Ю 1 12 км 8/0
[Ac trans Cs]
+25.5 +24.1 92 +35 +35 очень
душно
1014.2 991.6
03 20.07 Ю 1 12 км 8/3 360 м
[Sc Ac trans Cs]
+24.6 +23.8 95 +33 +33 очень
душно
1014.1 991.4
06 20.07 ЮЗ 1 12 км 8/0
[Ac trans Cs]
+24.5 +24.1 98 +34 +34 очень
душно
1014.8 992.1 +24.0
09 20.07 ЮЗ 1 14 км 8/3 360 м
[Sc Ac trans Ci sp]
+26.2 +23.9 87 +36 +42 очень
душно
1015.2 992.6
12 20.07 СЗ 2 14 км 8/5 480 м
[Cu med, cong Ac trans Ci sp]
+29.9 +23.8 70 +41 +49 опасность
перегрева
1014.2 991.9
15 20.07 ЮЗ 2 14 км 8/8 480 м
[Cu med, cong]
+30.8 +22.8 62 +40 +43 очень
душно
1011.3 989.1
18 20.07 ЮЗ 1 14 км 8/3 480 м
[Cb cap Ac trans Cs]
+29.5 +24.1 73 +41 +41 опасность
перегрева
1011.4 989.1 +31.0
21 20.07 СЗ 3 8000 м гроза, ливневой дождь 9/3 330 м
[Cb cap Ac As]
+22.0 +20.6 92 +28 +28 душно 1015.4 992.5
00 21.07 С 2 8000 м гроза, ливневой дождь 9/9 330 м
[Sc]
+23.0 +21.4 91 +31 +31 очень
душно
1014.9 992.1 56
03 21.07 ЮЗ 1 8000 м гроза, ливневой дождь 8/8 330 м
[Sc]
+22.8 +22.5 98 +31 +31 очень
душно
1013.5 990.7
09 21.07 ЮЗ 1 14 км 9/9 360 м
[Cu Sc]
+24.3 +22.8 91 +32 +33 очень
душно
1015.3 992.6
12 21.07 СЗ 1 14 км 9/9 360 м
[Cb cap]
+27.6 +22.9 76 +37 +40 очень
душно
1014.4 991.9
15 21.07 ЮЗ 1 14 км 5/5 500 м
[Cb cap Ci sp]
+29.9 +23.9 70 +41 +48 опасность
перегрева
1011.1 988.9
18 21.07 ЮЗ 1 14 км {дождь} 6/4 360 м
[Cb cap Ac trans Cs]
+28.5 +24.3 78 +40 +40 очень
душно
1016.7 994.3 +30.2 0.0
21 21.07 ЮЗ 1 12 км 8/0
[Ac trans Ci sp]
+27.0 +24.0 84 +37 +37 очень
душно
1012.4 989.9
00 22.07 ЮЗ 1 12 км 5/0
[Ac trans Ci sp]
+25.6 +23.4 88 +35 +35 очень
душно
1013.4 990.8
06 22.07 штиль 0 12 км 9/5 360 м
[Sc Ac trans]
+24.2 +23.4 95 +32 +32 очень
душно
1014.5 991.8 +23.4 0.0
09 22.07 Ю 1 15 км 9/9 360 м
[Sc]
+26.0 +23.8 88 +36 +37 очень
душно
1015.6 993.0
12 22.07 Ю 1 15 км 9/9 400 м
[Cu Sc]
+28.3 +24.1 78 +39 +42 очень
душно
1015.0 992.6
18 22.07 ЮЗ 1 14 км {гроза, дождь} 8/4 480 м
[Cb cap Ac trans Cs]
+27.2 +23.5 80 +37 +37 очень
душно
1011.7 989.3 +29.0 11
21 22.07 штиль 0 16 км 8/0
[Ac trans Cs]
+25.2 +23.5 90 +34 +34 очень
душно
1012.8 990.2
00 23.07 штиль 0 16 км 8/0
[Ac trans Cs]
+24.8 +23.7 94 +34 +34 очень
душно
1013.8 991.1
03 23.07 штиль 0 12 км 9/0
[Ac trans]
+25.0 +24.0 94 +34 +34 очень
душно
1012.4 989.8
06 23.07 ЮЗ 1 12 км 9/1 360 м
[Sc Ac trans]
+24.5 +23.8 96 +33 +33 очень
душно
1013.5 990.8 +24.0 11
09 23.07 ЮЗ 2 14 км 9/8 360 м
[Sc Ac trans]
+26.0 +24.6 92 +37 +38 очень
душно
1014.6 992.0
12 23.07 З 1 8000 м гроза, ливневой дождь 9/4 360 м
[Cb cap Ac As]
+24.8 +23.8 94 +34 +41 очень
душно
1014.2 991.5 2
15 23.07 Ю 1 10 км {гроза, дождь} 9/4 360 м
[Sc Ac trans]
+25.2 +24.2 94 +35 +39 очень
душно
1012.1 989.5
18 23.07 ЮВ 1 14 км {гроза, дождь} 8/1 360 м
[Sc Ac trans Cs]
+26.0 +24.6 92 +37 +37 очень
душно
1012.1 989.6 +26.5 70

 

Местоположение метеостанции Йенди (Гана): широта 9.45 долгота -0.02 высота над уровнем моря 197 м.

В архиве по умолчанию представлена погода в Йенди за последнюю неделю. Архивные данные за месяц целиком и за предыдущие месяцы, начиная с января 2011 года, Вы можете получить, выбрав интересующий диапазон дат из раскрывающегося списка и нажав кнопку "Ввод!".


*Определитесь, кто Вы:
робот инопланетянин человек

Внимание! Время в таблицах - всемирное. Для получения местного времени необходимо прибавить поправку, которая равна 1 ч.

Смотрите также архив погоды в соседних городах и на ближайших метеорологических станциях:

Погода в Тамале (Гана) (91 км)
Погода в Манго (Того) (116 км)
Погода в Ньамтугу (Того) (128 км)
Погода в Каре (Того) (131 км)
Погода в Сокоде (Того) (139 км)
Погода в Дапаоне (Того) (163 км)
Погода в Кет-Крачи (Гана) (181 км)
Погода в Натитингу (Бенин) (181 км)
Погода в Навронго (Гана) (200 км)
Погода в По (Буркина-Фасо) (226 км)

Пояснения к столбцам:

Ветер - указаны скорость ветра в м/с - средняя за 10 мин, порывы в срок и между сроками (в фигурных скобках) и направление, откуда дует ветер: С - северный, СВ - северо-восточный, В - восточный, ЮВ - юго-восточный, Ю - южный, ЮЗ - юго-западный, З - западный, СЗ - северо-западный.
Видимость - горизонтальная дальность видимости в метрах или километрах. При видимости от 1 до 10 км при отсутствии осадков обычно наблюдается дымка, при ухудшении видимости до 1 км и менее - туман. В сухую погоду видимость может ухудшаться дымом, пылью или мглою.
Явления - указаны атмосферные явления, наблюдавшиеся в срок или в последний час перед сроком; фигурными скобками обозначены явления, наблюдавшиеся между сроками (за 1-3 часа до срока); квадратными скобками обозначены град или гололедные отложения с указанием их диаметра в мм.
Облачность - указаны через наклонную черту общая и нижняя облачность в баллах и высота нижней границы облаков в метрах; квадратными скобками обозначены формы облаков: Ci - перистые, Cs - перисто-слоистые, Cc - перисто-кучевые, Ac - высококучевые, As - высокослоистые, Sc - слоисто-кучевые, Ns - слоисто-дождевые, Cu - кучевые, Cb - кучево-дождевые. Подробнее классификацию облаков см. в Атласе облаков (PDF).
T - Температура воздуха - температура, измеренная на высоте 2 м над землей.
Td - Температура точки росы - температура, при понижении до которой содержащийся в воздухе водяной пар достигнет насыщения.
f - Относительная влажность воздуха - влажноcть воздуха, измеренная на высоте 2 м над землей.
Te - Эффективная температура - температура, которую ощущает одетый по сезону человек в тени. Характеристика душности погоды. При расчете учитывается влияние влажности воздуха и скорости ветра на теплоощущения человека.
Tes - Эффективная температура на солнце - температура, которую ощущает человек, с поправкой на солнечный нагрев. Характеристика знойности погоды. Зависит от высоты солнца над горизонтом, облачности и скорости ветра. Ночью, в пасмурную погоду, а также при ветре 12 м/с и более поправка равна нулю.
P - Атмосферное давление - приведенное к уровню моря атмосферное давление.
Po - Атмосферное давление - измеренное на уровне метеостанции атмосферное давление.
Tmin - Минимальная температура - минимум температуры воздуха на высоте 2 м над землей.
Tmax - Максимальная температура - максимум температуры воздуха на высоте 2 м над землей.
R - Количество осадков - Количество выпавших осадков за период времени, мм. При наведении курсора мыши на число - период времени, за который выпало указанное количество осадков.
R24 - Количество осадков - Количество выпавших осадков за 24 часа, мм.
S - Снежный покров - Высота снежного покрова, см. При наведении курсора мыши на число - состояние снежного покрова и степень покрытия местности в баллах.